| time (UTC) | temp F | wind direction | speed MPH | gust MPH | rain 1hr in | rain 24hr in | rain mn in | humidity % | barometer mb |
| 20260509053013 | 62 | 198 | 7.0 | 12.0 | 0.00 | 0.00 | 0.00 | 80 | 1011.7 |
| 20260509051508 | 62 | 182 | 9.0 | 13.0 | 0.00 | 0.00 | 0.00 | 80 | 1011.4 |
| 20260509050006 | 62 | 186 | 8.0 | 12.0 | 0.00 | 0.00 | 0.00 | 78 | 1011.5 |
| 20260509044503 | 63 | 181 | 6.0 | 10.0 | 0.00 | 0.00 | 0.00 | 77 | 1011.8 |
| 20260509043002 | 63 | 192 | 6.0 | 10.0 | 0.00 | 0.00 | 0.00 | 75 | 1011.8 |
| 20260509041504 | 63 | 202 | 7.0 | 11.0 | 0.00 | 0.00 | 0.00 | 74 | 1012.1 |
| 20260509040001 | 62 | 180 | 8.0 | 11.0 | 0.00 | 0.00 | 0.00 | 76 | 1011.7 |
| 20260509034601 | 62 | 209 | 6.0 | 7.0 | 0.00 | 0.00 | 0.00 | 77 | 1012.5 |
| 20260509033100 | 62 | 221 | 4.0 | 7.0 | 0.00 | 0.00 | 0.00 | 75 | 1012.5 |
| 20260509031600 | 63 | 225 | 5.0 | 7.0 | 0.00 | 0.00 | 0.00 | 73 | 1012.5 |
| 20260509030059 | 63 | 240 | 5.0 | 8.0 | 0.00 | 0.00 | 0.00 | 74 | 1012.7 |
| 20260509024600 | 63 | 211 | 2.0 | 6.0 | 0.00 | 0.00 | 0.00 | 73 | 1012.4 |
| 20260509023104 | 65 | 200 | 5.0 | 8.0 | 0.00 | 0.00 | 0.00 | 70 | 1012.0 |
| 20260509021557 | 65 | 184 | 6.0 | 9.0 | 0.00 | 0.00 | 0.00 | 70 | 1011.6 |
| 20260509020059 | 64 | 198 | 6.0 | 8.0 | 0.00 | 0.00 | 0.00 | 71 | 1011.7 |
| 20260509014554 | 65 | 202 | 4.0 | 10.0 | 0.00 | 0.00 | 0.00 | 68 | 1011.7 |
| 20260509013059 | 66 | 213 | 6.0 | 8.0 | 0.00 | 0.00 | 0.00 | 66 | 1011.8 |
| 20260509011552 | 67 | 209 | 6.0 | 9.0 | 0.00 | 0.00 | 0.00 | 63 | 1011.6 |
| 20260509010050 | 69 | 210 | 8.0 | 17.0 | 0.00 | 0.00 | 0.00 | 60 | 1011.8 |
| 20260509004551 | 70 | 211 | 10.0 | 17.0 | 0.00 | 0.00 | 0.00 | 58 | 1011.7 |
| 20260509003057 | 71 | 215 | 11.0 | 18.0 | 0.00 | 0.00 | 0.00 | 58 | 1012.1 |
| 20260509001545 | 72 | 204 | 12.0 | 20.0 | 0.00 | 0.00 | 0.00 | 55 | 1012.2 |
| 20260509000047 | 73 | 211 | 13.0 | 17.0 | 0.00 | 0.00 | 0.00 | 53 | 1012.3 |
| 20260508234544 | 73 | 210 | 12.0 | 18.0 | 0.00 | 0.00 | 0.00 | 52 | 1012.5 |
| 20260508233043 | 74 | 197 | 12.0 | 17.0 | 0.00 | 0.00 | 0.00 | 49 | 1012.4 |
| 20260508231542 | 74 | 212 | 12.0 | 17.0 | 0.00 | 0.00 | 0.00 | 49 | 1012.2 |
| 20260508230043 | 75 | 203 | 11.0 | 17.0 | 0.00 | 0.00 | 0.00 | 48 | 1012.3 |
| 20260508224538 | 75 | 190 | 11.0 | 18.0 | 0.00 | 0.00 | 0.00 | 46 | 1012.3 |
| 20260508223040 | 75 | 213 | 12.0 | 21.0 | 0.00 | 0.00 | 0.00 | 49 | 1012.5 |
| 20260508221536 | 75 | 216 | 11.0 | 16.0 | 0.00 | 0.00 | 0.00 | 48 | 1012.7 |
| 20260508220033 | 75 | 195 | 12.0 | 20.0 | 0.00 | 0.00 | 0.00 | 47 | 1012.7 |
| 20260508214532 | 75 | 221 | 10.0 | 18.0 | 0.00 | 0.00 | 0.00 | 47 | 1012.7 |
| 20260508213029 | 75 | 212 | 11.0 | 15.0 | 0.00 | 0.00 | 0.00 | 47 | 1012.9 |
| 20260508211528 | 75 | 212 | 10.0 | 16.0 | 0.00 | 0.00 | 0.00 | 49 | 1013.1 |
| 20260508210024 | 75 | 188 | 11.0 | 19.0 | 0.00 | 0.00 | 0.00 | 49 | 1013.3 |
| 20260508204522 | 74 | 161 | 9.0 | 18.0 | 0.00 | 0.00 | 0.00 | 50 | 1013.2 |
| 20260508203021 | 74 | 213 | 9.0 | 16.0 | 0.00 | 0.00 | 0.00 | 51 | 1013.3 |
| 20260508201524 | 74 | 211 | 12.0 | 18.0 | 0.00 | 0.00 | 0.00 | 52 | 1013.7 |
| 20260508200021 | 74 | 174 | 11.0 | 15.0 | 0.00 | 0.00 | 0.00 | 55 | 1013.8 |
| 20260508194515 | 73 | 181 | 11.0 | 20.0 | 0.00 | 0.00 | 0.00 | 54 | 1014.1 |
| 20260508193017 | 73 | 205 | 12.0 | 19.0 | 0.00 | 0.00 | 0.00 | 53 | 1014.2 |
| 20260508191515 | 72 | 184 | 9.0 | 19.0 | 0.00 | 0.00 | 0.00 | 57 | 1014.4 |
| 20260508190008 | 72 | 200 | 11.0 | 25.0 | 0.00 | 0.00 | 0.00 | 56 | 1014.8 |
| 20260508184507 | 72 | 194 | 10.0 | 20.0 | 0.00 | 0.00 | 0.00 | 58 | 1015.3 |
| 20260508183001 | 72 | 235 | 13.0 | 22.0 | 0.00 | 0.00 | 0.00 | 57 | 1015.6 |
| 20260508181632 | 72 | 186 | 11.0 | 18.0 | 0.00 | 0.00 | 0.00 | 60 | 1015.8 |
| 20260508174601 | 70 | 214 | 11.0 | 19.0 | 0.00 | 0.00 | 0.00 | 61 | 1016.3 |
| 20260508173051 | 70 | 198 | 13.0 | 20.0 | 0.00 | 0.00 | 0.00 | 63 | 1016.5 |
| 20260508171549 | 70 | 210 | 11.0 | 18.0 | 0.00 | 0.00 | 0.00 | 63 | 1016.8 |
| 20260508170045 | 69 | 205 | 13.0 | 22.0 | 0.00 | 0.00 | 0.00 | 61 | 1017.0 |
| 20260508164543 | 69 | 180 | 11.0 | 20.0 | 0.00 | 0.00 | 0.00 | 63 | 1017.2 |
| 20260508163042 | 68 | 186 | 12.0 | 21.0 | 0.00 | 0.00 | 0.00 | 64 | 1017.4 |
| 20260508161538 | 68 | 196 | 16.0 | 22.0 | 0.00 | 0.00 | 0.00 | 63 | 1017.5 |
| 20260508160034 | 68 | 209 | 10.0 | 16.0 | 0.00 | 0.00 | 0.00 | 68 | 1017.6 |
| 20260508154532 | 67 | 170 | 10.0 | 15.0 | 0.00 | 0.00 | 0.00 | 68 | 1017.7 |
| 20260508153040 | 66 | 194 | 12.0 | 17.0 | 0.00 | 0.00 | 0.00 | 69 | 1018.0 |
| 20260508151529 | 65 | 188 | 10.0 | 17.0 | 0.00 | 0.00 | 0.00 | 71 | 1018.2 |
| 20260508150022 | 64 | 203 | 9.0 | 15.0 | 0.00 | 0.00 | 0.00 | 73 | 1018.4 |
| 20260508144519 | 63 | 179 | 7.0 | 15.0 | 0.00 | 0.00 | 0.00 | 76 | 1018.7 |
| 20260508143022 | 62 | 190 | 8.0 | 13.0 | 0.00 | 0.00 | 0.00 | 77 | 1018.7 |
| 20260508141513 | 61 | 190 | 9.0 | 14.0 | 0.00 | 0.00 | 0.00 | 77 | 1018.8 |
| 20260508140010 | 60 | 188 | 8.0 | 14.0 | 0.00 | 0.00 | 0.00 | 79 | 1019.1 |
| 20260508134507 | 59 | 188 | 8.0 | 14.0 | 0.00 | 0.00 | 0.00 | 80 | 1019.0 |
| 20260508133007 | 58 | 180 | 7.0 | 10.0 | 0.00 | 0.00 | 0.00 | 81 | 1019.2 |
| 20260508131502 | 57 | 178 | 7.0 | 10.0 | 0.00 | 0.00 | 0.00 | 84 | 1019.2 |
| 20260508130058 | 56 | 185 | 7.0 | 10.0 | 0.00 | 0.00 | 0.00 | 85 | 1019.1 |
| 20260508124553 | 55 | 178 | 6.0 | 9.0 | 0.00 | 0.00 | 0.00 | 86 | 1019.1 |
| 20260508123056 | 54 | 197 | 7.0 | 10.0 | 0.00 | 0.00 | 0.00 | 87 | 1019.1 |
| 20260508121554 | 53 | 212 | 3.0 | 8.0 | 0.00 | 0.00 | 0.00 | 89 | 1019.0 |
| 20260508120052 | 52 | 209 | 4.0 | 8.0 | 0.00 | 0.00 | 0.00 | 88 | 1018.8 |
| 20260508114548 | 51 | 186 | 4.0 | 6.0 | 0.00 | 0.00 | 0.00 | 88 | 1018.6 |
| 20260508113050 | 50 | 197 | 4.0 | 6.0 | 0.00 | 0.00 | 0.00 | 89 | 1018.6 |
| 20260508111548 | 50 | 173 | 3.0 | 4.0 | 0.00 | 0.00 | 0.00 | 88 | 1018.1 |
| 20260508110047 | 50 | 171 | 1.0 | 4.0 | 0.00 | 0.00 | 0.00 | 88 | 1017.7 |
| 20260508104541 | 51 | 167 | 2.0 | 5.0 | 0.00 | 0.00 | 0.00 | 86 | 1017.7 |
| 20260508103041 | 51 | 167 | 3.0 | 4.0 | 0.00 | 0.00 | 0.00 | 85 | 1017.7 |
| 20260508101539 | 51 | 177 | 2.0 | 5.0 | 0.00 | 0.00 | 0.00 | 85 | 1017.8 |
| 20260508100037 | 51 | 182 | 2.0 | 4.0 | 0.00 | 0.00 | 0.00 | 86 | 1017.8 |
| 20260508094538 | 51 | 198 | 3.0 | 5.0 | 0.00 | 0.00 | 0.00 | 86 | 1018.0 |
| 20260508093035 | 51 | 201 | 3.0 | 5.0 | 0.00 | 0.00 | 0.00 | 86 | 1017.9 |
| 20260508091533 | 51 | 197 | 3.0 | 5.0 | 0.00 | 0.00 | 0.00 | 86 | 1018.0 |
| 20260508090034 | 52 | 175 | 1.0 | 3.0 | 0.00 | 0.00 | 0.00 | 85 | 1017.9 |
| 20260508084530 | 52 | 175 | 2.0 | 4.0 | 0.00 | 0.00 | 0.00 | 84 | 1018.1 |
| 20260508083029 | 52 | 175 | 3.0 | 5.0 | 0.00 | 0.00 | 0.00 | 84 | 1018.1 |
| 20260508081533 | 52 | 171 | 0.0 | 3.0 | 0.00 | 0.00 | 0.00 | 85 | 1018.2 |
| 20260508080026 | 52 | 171 | 1.0 | 4.0 | 0.00 | 0.00 | 0.00 | 85 | 1018.5 |
| 20260508074524 | 53 | 192 | 1.0 | 5.0 | 0.00 | 0.00 | 0.00 | 83 | 1018.5 |
| 20260508073024 | 53 | 187 | 3.0 | 5.0 | 0.00 | 0.00 | 0.00 | 84 | 1018.6 |
| 20260508071528 | 53 | 181 | 3.0 | 4.0 | 0.00 | 0.00 | 0.00 | 84 | 1018.8 |
| 20260508070020 | 53 | 180 | 3.0 | 4.0 | 0.00 | 0.00 | 0.00 | 85 | 1019.0 |
| 20260508064521 | 53 | 180 | 2.0 | 4.0 | 0.00 | 0.00 | 0.00 | 85 | 1018.9 |
| 20260508063019 | 53 | 174 | 4.0 | 5.0 | 0.00 | 0.00 | 0.00 | 84 | 1019.0 |
| 20260508061521 | 54 | 172 | 2.0 | 4.0 | 0.00 | 0.00 | 0.00 | 82 | 1019.0 |
| 20260508060015 | 54 | 172 | 1.0 | 3.0 | 0.00 | 0.00 | 0.00 | 82 | 1019.1 |
| 20260508054516 | 54 | 172 | 1.0 | 3.0 | 0.00 | 0.00 | 0.00 | 82 | 1018.9 |